Regional Weather Roundup
Issued by NWS

Home | Current Version | Previous Version | Text Only | Print | Product List | Glossary Off
Versions: 1 2 3 4 5 6 7 8 9 10 11 12 13 14 15 16 17 18 19 20 21 22 23 24 25 26 27 28 29 30 31 32 33 34 35 36 37 38 39 40 41 42 43 44 45 46 47 48 49 50

000
ASUS45 KBOU 240507
RWRCO

WEATHER ROUNDUP FOR COLORADO
NATIONAL WEATHER SERVICE DENVER/BOULDER CO
1100 PM MDT WED JUL 23 2014

NOTE: "FAIR" INDICATES FEW OR NO CLOUDS BELOW 12000 FEET WITH NO
SIGNIFICANT WEATHER AND/OR OBSTRUCTIONS TO VISIBILITY.

COZ001>005-013-030-031-240600-
...NORTHWEST COLORADO...

CITY           SKY/WX    TMP DP  RH WIND       PRES   REMARKS
CRAIG          MOCLDY    77  42  28 N6        30.27R
HAYDEN         MOCLDY    73  41  31 E10       30.29S
MEEKER         MOCLDY    75  40  28 N6        30.28R
MOUNT WERNER   NOT AVBL
STEAMBOAT SPGS MOCLDY    71  42  34 NE3       30.32S
WALDEN         MOCLDY    61  37  41 E6        30.46S
$$

COZ006>008-011-240600-
...WEST CENTRAL VALLEYS...

CITY           SKY/WX    TMP DP  RH WIND       PRES   REMARKS
GRAND JUNCTION PTCLDY    82  39  21 SE12      30.11R
MONTROSE       MOCLDY    80  42  25 VRB6      30.24S
EAGLE          MOCLDY    73  45  35 E5        30.36F
RIFLE          PTCLDY    78  45  30 E16       30.21S
DELTA          MOCLDY    85  44  23 NE8       30.19S
NUCLA          MOCLDY    79  39  24 SE9       30.28R
$$

COZ017>023-064>068-240600-
...SOUTHWEST COLORADO...

CITY           SKY/WX    TMP DP  RH WIND       PRES   REMARKS
DURANGO        LGT RAIN  71  53  52 NE12      30.42R
CORTEZ         CLEAR     79  49  34 S8        30.28R
PAGOSA SPRINGS RAIN      65  53  66 NW7       30.53R
TELLURIDE      CLOUDY    70  39  32 E6        30.55S
WOLF CREEK PAS NOT AVBL
$$

COZ009-010-012-014-032>034-037-058>063-240600-
...CENTRAL COLORADO...

CITY           SKY/WX    TMP DP  RH WIND       PRES   REMARKS
ASPEN          MOCLDY    66  46  48 S6        30.43F
BUENA VISTA    PTCLDY    61  43  52 W8        30.53F
COPPER MTN     MOCLDY    55  36  47 SE10      30.82F
BERTHOUD PASS  CLOUDY    48  34  57 MISG      30.86S
COTTONWOOD PAS PTCLDY    63  37  39 S3        30.68S
GUNNISON       MOCLDY    66  43  42 N5        30.48S
KREMMLING      MOCLDY    61  39  44 N3        30.42F
LEADVILLE      MOCLDY    48  44  86 E5        30.66F
MONARCH PASS   PTCLDY    52  37  58 E17       30.92F
SALIDA         PTCLDY   N/A N/A N/A W8        30.57S
SUNLIGHT       MOCLDY    57  43  58 E6        30.70S
WILKERSON PASS CLOUDY    55  36  47 S5        30.81F
$$

COZ069>075-240600-
...SAN LUIS VALLEY/SANGRE DE CRISTO MOUNTAINS...

CITY           SKY/WX    TMP DP  RH WIND       PRES   REMARKS
ALAMOSA        PTCLDY    66  45  46 S10       30.48S
LA VETA PASS   MOCLDY    52  45  76 W7        30.67F
SAGUACHE       PTCLDY    68  46  45 S7        30.53R
$$

COZ035-036-038>040-240600-
...NORTHERN COLORADO FRONT RANGE...

CITY           SKY/WX    TMP DP  RH WIND       PRES   REMARKS
DENVER INTL AP MOCLDY    72  47  40 S6        30.22F
DMNS CITY PARK   N/A     76  47  35 SW5G10    30.20F
AURORA         MOCLDY    69  52  54 S10       30.25F
FRONT RANGE AP NOT AVBL
ERIE MUNI ARPT PTCLDY    74  46  36 W6        30.18F
BOULDER MUN AP PTCLDY    82  39  21 SW6       30.18F
CENTENNIAL     MOCLDY    76  43  30 SW13      30.25F
BROOMFIELD     NOT AVBL
FORT COLLINS   PTCLDY    72  52  49 W3        30.19S
LONGMONT       PTCLDY    68  55  62 N3        30.19S
$$

COZ041-046-047-076>085-087-088-240600-
...PIKES PEAK/PALMER DIVIDE AND SOUTHERN FOOTHILLS...

CITY           SKY/WX    TMP DP  RH WIND       PRES   REMARKS
COLO. SPRINGS  PTCLDY    71  48  43 N6        30.35F
A. F. ACADEMY  MOCLDY    64  49  56 NE6       30.38F
ELLICOTT       PTCLDY    72  61  68 E12       30.32F
FALCON         PTCLDY    70  49  47 CALM      30.41F
FORT CARSON    PTCLDY    70  49  47 NW8       30.31F
LIMON          PTCLDY    72  63  73 S13       30.27S
MONUMENT HILL  MOCLDY    66  43  42 S8        30.39F
TRINIDAD       PTCLDY    72  46  39 W13       30.32R
$$

COZ042>045-048>051-090-091-240600-
...NORTHEAST COLORADO...

CITY           SKY/WX    TMP DP  RH WIND       PRES   REMARKS
GREELEY ARPT   MOCLDY    70  50  49 SE3       30.16F
AKRON          PTCLDY    75  60  59 S13       30.20F
BURLINGTON     MOCLDY    76  65  68 SE14      30.21F
WRAY             N/A     79  61  54 E8        30.16S
STERLING       PTCLDY    75  66  73 CALM      30.14S
HOLYOKE        CLEAR     73  68  83 SE10      30.17S
FORT MORGAN    PTCLDY    72  61  66 SE3       30.18F
$$

COZ086-089-092>099-240600-
...SOUTHEAST COLORADO...

CITY           SKY/WX    TMP DP  RH WIND       PRES   REMARKS
PUEBLO         CLEAR     76  61  59 N7        30.19F
LA JUNTA       CLEAR     79  54  41 S7        30.18S
LAMAR          CLEAR     80  64  58 SE18      30.14F
SPRINGFIELD      N/A     70  55  59 S9        30.24S
$$



USA.gov is the U.S. government's official web portal to all federal, state and local government web resources and services.